Overview Statistics Trail Chart Weather Telemetry Raw packets
 

This is the latest recevied weather packets stored in our database for station/object ED3YAB-7. If no packets are shown the sender has not sent any weather packets the latest 10 day(s).

<< 11 12 13 14 15 16 17 >>
Time Temp. Humidity Pressure Rain* Wind** Luminosity Snow
1777900650 21.11° C 49% 1016.9 hPa - - - -
1777899450 21.67° C 50% 1016.5 hPa - - - -
1777898249 20.56° C 52% 1016.5 hPa - - - -
1777897049 23.89° C 45% 1016.3 hPa - - - -
1777895857 23.89° C 43% 1016.6 hPa - - - -
1777895849 23.89° C 43% 1016.6 hPa - - - -
1777894656 22.22° C 46% 1016.6 hPa - - - -
1777894649 22.22° C 46% 1016.6 hPa - - - -
1777893458 21.67° C 44% 1016.7 hPa - - - -
1777893451 21.67° C 44% 1016.7 hPa - - - -
1777892258 23.33° C 39% 1016.8 hPa - - - -
1777892250 23.33° C 39% 1016.8 hPa - - - -
1777891058 24.44° C 37% 1017 hPa - - - -
1777891050 24.44° C 37% 1017 hPa - - - -
1777889858 25° C 37% 1017.1 hPa - - - -
1777889850 25° C 37% 1017.1 hPa - - - -
1777888650 22.78° C 42% 1017.2 hPa - - - -
1777887450 21.67° C 45% 1017.3 hPa - - - -
1777886257 22.22° C 45% 1017.3 hPa - - - -
1777886250 22.22° C 45% 1017.3 hPa - - - -
1777885064 20.56° C 47% 1017.7 hPa - - - -
1777885050 20.56° C 47% 1017.7 hPa - - - -
1777884086 21.11° C 46% 1017.8 hPa - - - -
1777883857 21.11° C 46% 1017.8 hPa - - - -
1777883849 21.11° C 46% 1017.8 hPa - - - -

* Rain since midnight (hover to see other rain measurements)
** Current wind speed in m/s (hover to see current wind gust speed)